sat.trackr.live / text

‹ back to catalog

STARLINK-35805

NORAD 66359 · 2025-254M

PAYLOAD ACTIVE UNKNOWN

§ Identity

Operator
Country
US
Launch date
2025-11-06
Launch site
AFWTR
Launch vehicle
Mass (kg)
RCS (m²)

Purposes: comms

External: N2YO · Heavens-Above · Gunter

§ Orbital elements

Epoch: 2026-09-20T17:49:16.434048Z

Period
94.01 min
Inclination
53.1606°
Eccentricity
0.0002533
Mean motion
15.31743992 rev/d
Perigee alt
468.9 km
Apogee alt
472.3 km
Semi-major
6,848.7 km
B*
9.3694e-4
RAAN
44.7133°
Arg perigee
40.8807°
Mean anomaly
319.2384°
Rev number
4,999

§ Raw data

STARLINK-358051 66359U 25254M   26263.74255132  .00028863  00000+0  93694-3 0  99952 66359  53.1606  44.7133 0002533  40.8807 319.2384 15.31743992 49999

JSON: /api/v1/satellites/66359 · /tle

For live sub-satellite position, see the globe view (requires WebGL).

§ Visibility from observer

Set your observer location to see the next 7 days of passes ≥ 10°. The values pass through the URL so the page stays shareable.

No JS? Fill the form by hand. The geolocation button needs JavaScript.